Location: Saratoga Springs
(43.0831°N, 73.7850°W)
Time: 11:46:23
(UTC-04:00)

Vanguard 3 - Pass Details

Date: 29 April 2024
Orbit: 509 x 3233 km, 33.3° (Epoch: 23 May)

Event Time Altitude Azimuth Distance (km) Brightness Sun altitude
Exits shadow 04:43:07 - 258° (WSW) 6,060 11.0 -11.8°
Reaches altitude 10° 04:43:43 10° 258° (WSW) 5,920 10.9 -11.7°
Maximum altitude 05:00:22 56° 187° (S) 2,573 9.5 -9.1°
Drops below altitude 10° 05:10:29 10° 113° (ESE) 3,742 11.1 -7.5°
Sets 05:13:00 0° 108° (ESE) 4,426 11.6 -7.1°
